EST,Max TemperatureF,Mean TemperatureF,Min TemperatureF,Max Dew PointF,MeanDew PointF,Min DewpointF,Max Humidity, Mean Humidity, Min Humidity, Max Sea Level PressureIn, Mean Sea Level PressureIn, Min Sea Level PressureIn, Max VisibilityMiles, Mean VisibilityMiles, Min VisibilityMiles, Max Wind SpeedMPH, Mean Wind SpeedMPH, Max Gust SpeedMPH,PrecipitationIn, CloudCover, Events, WindDirDegrees
2012-12-1,77,74,72,63,62,60,73,66,58,30.20,30.16,30.13,10,10,10,17,14,24,0.00,3,,65
2012-12-2,77,74,70,65,63,61,81,70,62,30.24,30.19,30.15,10,10,6,18,14,25,0.03,3,Rain,74
2012-12-3,77,74,70,65,59,51,76,62,49,30.24,30.20,30.17,10,10,10,16,13,22,0.00,2,,70
2012-12-4,78,74,71,64,60,56,78,62,48,30.24,30.19,30.16,10,10,10,17,13,24,0.01,5,Rain,74
2012-12-5,78,75,72,66,63,59,78,68,52,30.15,30.08,30.03,10,10,9,13,9,18,0.02,4,Rain,91
2012-12-6,78,76,73,68,65,63,84,73,64,30.01,29.97,29.92,10,10,8,15,8,21,0.01,4,Rain,101
2012-12-7,78,76,73,68,67,66,83,75,66,30.00,29.95,29.91,10,10,10,14,9,,0.00,3,,139
2012-12-8,81,77,73,74,71,67,94,83,72,30.04,30.01,29.97,10,10,10,17,9,,0.00,3,Rain,118
2012-12-9,80,75,70,75,74,70,100,93,79,30.10,30.04,30.00,10,10,10,10,7,,0.01,3,Rain,162
2012-12-10,81,76,71,76,75,71,100,95,82,30.03,29.98,29.93,10,10,10,17,7,24,0.00,4,Rain,174
2012-12-11,82,76,69,77,75,70,100,96,77,30.06,29.99,29.94,10,10,2,17,9,25,0.29,4,Rain-Thunderstorm,178
2012-12-12,80,76,73,75,73,70,100,89,74,30.11,30.06,30.03,10,10,10,18,9,24,0.00,3,,170
2012-12-13,79,72,64,74,69,64,100,93,78,30.11,30.08,30.04,10,10,10,13,6,,0.00,4,Rain,299
2012-12-14,77,70,62,70,65,58,100,87,52,30.14,30.09,30.06,10,9,2,18,9,33,0.19,4,Rain,357
2012-12-15,75,74,72,66,64,62,79,72,62,30.12,30.06,30.03,10,10,10,15,11,21,0.00,4,,73
2012-12-16,79,76,72,70,67,65,90,77,64,30.06,30.01,29.97,10,10,10,12,9,,0.00,4,Rain,135
2012-12-17,82,73,64,70,66,61,100,80,47,29.99,29.97,29.90,10,10,10,10,4,16,0.00,2,,217
2012-12-18,82,76,69,71,67,63,100,82,51,30.02,29.97,29.93,10,10,8,14,5,,0.00,1,,261
2012-12-19,79,70,61,67,62,57,96,72,47,30.10,30.05,30.02,10,10,10,9,5,,0.00,0,,45
2012-12-20,80,76,70,67,64,61,90,70,54,30.11,30.04,29.99,10,10,10,13,8,21,0.00,1,,155
2012-12-21,71,62,52,70,52,35,100,68,33,30.18,30.06,29.97,10,10,8,23,12,32,0.00,2,Rain,292
2012-12-22,63,54,46,39,28,20,66,40,21,30.26,30.22,30.18,10,10,10,17,13,23,0.00,0,,322
2012-12-23,72,60,48,53,44,30,72,52,45,30.25,30.19,30.15,10,10,10,13,6,,0.00,2,,8
2012-12-24,75,66,57,59,55,52,87,68,50,30.14,30.08,30.01,10,10,10,15,5,18,0.00,3,,256
2012-12-25,78,68,59,65,60,57,96,73,52,30.06,30.00,29.96,10,10,10,14,5,22,0.00,2,,135
2012-12-26,82,74,63,71,67,61,100,81,54,30.00,29.93,29.86,10,10,5,21,12,30,0.09,5,Rain,223
2012-12-27,70,62,53,57,49,44,96,69,39,30.08,30.04,30.00,10,10,10,15,8,22,0.00,0,,318
2012-12-28,77,66,54,73,65,49,94,84,71,30.09,30.03,29.99,10,10,10,12,5,,0.00,4,,140
2012-12-29,82,74,62,73,70,52,97,83,69,30.11,30.00,29.95,10,10,10,17,11,25,0.00,3,,222
2012-12-30,68,59,50,55,51,44,83,69,58,30.29,30.23,30.12,10,10,10,20,14,24,0.00,4,,360
2012-12-31,73,70,66,59,56,53,66,61,53,30.31,30.25,30.20,10,10,10,17,13,23,0.00,5,,97